This demonstration page uses our WeatherBlox Daily Observations layout. Learn more.

Left ArrowRight Arrow

38.83388, -104.82136

Hourly Observations for April 14, 2022

Temp ( °F °C ) Dew Point ( °F °C ) Humidity (%) Winds ( mph kmh ) Pressure ( in mb ) Visibility ( mi km ) Precip ( " mm )
12:58 am 00:58 Clear 30 -1.1 -2 -19.1 24 24 SSE 8 13 N/A 10 16 0.00 0.00
1:58 am 01:58 Mostly Clear 29 -1.4 0 -18 27 27 SE 9 15 N/A 10 16 0.00 0.00
2:58 am 02:58 Clear 28 -2 0 -17.7 29 29 SE 8 13 N/A 10 16 0.00 0.00
3:58 am 03:58 Clear 28 -2.5 -1 -18.1 29 29 SE 15 24 N/A 10 16 0.00 0.00
4:58 am 04:58 Clear 28 -2.5 -1 -18.1 29 29 SSE 13 20 N/A 10 16 0.00 0.00
5:58 am 05:58 Clear 27 -3 0 -17.8 31 31 E 3 6 N/A 10 16 0.00 0.00
6:58 am 06:58 Sunny 28 -2.1 1 -17 31 31 ESE 7 11 N/A 10 16 0.00 0.00
7:58 am 07:58 Sunny 29 -1.5 3 -16.1 32 32 Calm N/A 10 16 0.00 0.00
8:58 am 08:58 Sunny 34 1 5 -15.1 29 29 ENE 5 7 N/A 10 16 0.00 0.00
9:58 am 09:58 Sunny 39 3.7 6 -14.5 25 25 ENE 9 15 N/A 10 16 0.00 0.00
10:58 am 10:58 Sunny 41 5.1 5 -14.9 22 22 WNW 9 15 N/A 10 16 0.00 0.00
11:58 am 11:58 Sunny 50 10 4 -15.5 15 15 NNE 7 11 29.69 1005 10 16 0.00 0.00
12:53 pm 12:53 Sunny 52 11 1 -17 12 12 E 17 28 29.66 1004 10 16 0.00 0.00
12:58 pm 12:58 Sunny 53 11.4 1 -17 12 12 NE 6 9 29.66 1004 10 16 0.00 0.00
1:06 pm 13:06 Sunny 54 12 3 -16 13 13 ESE 22 35 29.65 1004 10 16 0.00 0.00
1:07 pm 13:07 Sunny 54 12 3 -16 13 13 S 18 30 29.67 1005 10 16 0.00 0.00
1:23 pm 13:23 Sunny 55 13 3 -16 12 12 E 14 22 29.65 1004 10 16 0.00 0.00
1:26 pm 13:26 Sunny 55 13 1 -17 11 11 ENE 14 22 29.65 1004 10 16 0.00 0.00
1:35 pm 13:35 Sunny 54 12 1 -17 12 12 NNE 14 22 29.68 1005 10 16 0.00 0.00
1:47 pm 13:47 Sunny 54 12 1 -17 12 12 SE 18 30 29.67 1005 10 16 0.00 0.00
1:51 pm 13:51 Sunny 54 12 0 -18 11 11 E 12 19 29.68 1005 10 16 0.00 0.00
1:53 pm 13:53 Sunny 54 12 1 -17 12 12 NE 14 22 29.67 1005 10 16 0.00 0.00
1:58 pm 13:58 Sunny 54 12.1 1 -17.5 11 11 NNW 8 13 29.68 1005 10 16 0.00 0.00
2:08 pm 14:08 Sunny 55 13 0 -18 10 10 NNE 16 26 29.66 1004 10 16 0.00 0.00
2:19 pm 14:19 Sunny 54 12 1 -17 12 12 W 13 20 29.68 1005 10 16 0.00 0.00
2:37 pm 14:37 Sunny 55 13 0 -18 10 10 ENE 13 20 29.66 1004 10 16 0.00 0.00
2:42 pm 14:42 Sunny 54 12 0 -18 11 11 SE 13 20 29.68 1005 10 16 0.00 0.00
2:58 pm 14:58 Sunny 54 12.1 -2 -18.7 10 10 ESE 20 31 29.67 1005 10 16 0.00 0.00
3:10 pm 15:10 Sunny 54 12 1 -17 12 12 E 15 24 29.67 1005 10 16 0.00 0.00
3:31 pm 15:31 Sunny 54 12 1 -17 12 12 E 16 26 29.67 1005 10 16 0.00 0.00
3:58 pm 15:58 Sunny 53 11.7 0 -17.8 11 11 WSW 3 6 29.69 1005 10 16 0.00 0.00
4:58 pm 16:58 Mostly Cloudy 53 11.5 0 -18 11 11 ENE 5 7 29.67 1005 10 16 0.00 0.00
5:58 pm 17:58 Mostly Sunny 52 11 1 -17.4 12 12 N 7 11 29.67 1005 10 16 0.00 0.00
6:58 pm 18:58 Cloudy 50 10.2 1 -17 13 13 Calm 29.65 1004 10 16 0.00 0.00
7:58 pm 19:58 Mostly Cloudy 47 8.4 3 -16 16 16 WSW 10 17 29.67 1005 10 16 0.00 0.00
8:58 pm 20:58 Mostly Cloudy 46 8 3 -16.3 16 16 Calm 29.67 1005 10 16 0.00 0.00
9:58 pm 21:58 Mostly Cloudy 46 7.5 3 -16 17 17 WSW 5 7 29.63 1003 10 16 0.00 0.00
10:58 pm 22:58 Cloudy 46 8 3 -16.3 16 16 SSE 6 9 29.61 1003 10 16 0.00 0.00
11:58 pm 23:58 Partly Cloudy 46 7.7 2 -16.6 16 16 SSE 6 9 29.57 1001 10 16 0.00 0.00

Powered by AerisWeather